| time (UTC) | temp F | wind direction | speed knots | gust knots | rain 1hr in | rain 24hr in | rain mn in | humidity % | barometer mb |
| 20260510190003 | 52 | 181 | 6.1 | 11.3 | 0.00 | 0.39 | 0.31 | 81 | 1010.4 |
| 20260510185003 | 52 | 194 | 7.0 | 11.3 | 0.00 | 0.39 | 0.31 | 79 | 1010.4 |
| 20260510184003 | 53 | 199 | 6.1 | 8.7 | 0.00 | 0.39 | 0.31 | 79 | 1010.4 |
| 20260510183003 | 53 | 194 | 7.0 | 12.2 | 0.00 | 0.39 | 0.31 | 80 | 1010.5 |
| 20260510182003 | 53 | 204 | 6.1 | 12.2 | 0.00 | 0.39 | 0.31 | 78 | 1010.4 |
| 20260510181003 | 53 | 210 | 7.8 | 15.6 | 0.00 | 0.39 | 0.31 | 74 | 1010.7 |
| 20260510180003 | 54 | 216 | 6.1 | 13.0 | 0.00 | 0.39 | 0.31 | 72 | 1010.5 |
| 20260510175003 | 54 | 217 | 7.8 | 13.0 | 0.00 | 0.39 | 0.31 | 71 | 1010.3 |
| 20260510174003 | 54 | 213 | 7.8 | 13.0 | 0.00 | 0.39 | 0.31 | 71 | 1010.5 |
| 20260510173003 | 54 | 233 | 7.8 | 14.8 | 0.00 | 0.39 | 0.31 | 73 | 1010.6 |
| 20260510172003 | 54 | 214 | 7.8 | 13.9 | 0.00 | 0.39 | 0.31 | 73 | 1010.2 |
| 20260510171003 | 54 | 216 | 7.8 | 13.0 | 0.00 | 0.39 | 0.31 | 74 | 1010.5 |
| 20260510170003 | 54 | 208 | 7.8 | 15.6 | 0.00 | 0.39 | 0.31 | 75 | 1010.5 |
| 20260510165003 | 54 | 214 | 7.0 | 13.0 | 0.00 | 0.41 | 0.31 | 74 | 1010.2 |
| 20260510164003 | 54 | 214 | 7.8 | 18.2 | 0.00 | 0.49 | 0.31 | 76 | 1010.3 |
| 20260510163003 | 54 | 215 | 7.0 | 12.2 | 0.00 | 0.58 | 0.31 | 77 | 1010.3 |
| 20260510162003 | 53 | 209 | 6.1 | 9.6 | 0.00 | 0.61 | 0.31 | 79 | 1010.2 |
| 20260510161003 | 53 | 212 | 7.8 | 13.0 | 0.01 | 0.61 | 0.31 | 80 | 1010.3 |
| 20260510160003 | 53 | 213 | 7.0 | 13.0 | 0.04 | 0.61 | 0.31 | 83 | 1010.4 |
| 20260510155003 | 52 | 204 | 6.1 | 12.2 | 0.06 | 0.61 | 0.31 | 84 | 1010.3 |
| 20260510154003 | 51 | 206 | 7.0 | 13.0 | 0.07 | 0.61 | 0.31 | 87 | 1010.3 |
| 20260510153003 | 50 | 225 | 6.1 | 12.2 | 0.08 | 0.61 | 0.31 | 87 | 1010.4 |
| 20260510152003 | 49 | 221 | 7.0 | 15.6 | 0.08 | 0.61 | 0.31 | 92 | 1010.4 |
| 20260510151003 | 49 | 231 | 7.8 | 15.6 | 0.07 | 0.60 | 0.30 | 93 | 1010.9 |
| 20260510150003 | 50 | 210 | 4.3 | 11.3 | 0.04 | 0.57 | 0.27 | 92 | 1010.6 |
| 20260510145003 | 50 | 208 | 6.1 | 11.3 | 0.02 | 0.55 | 0.25 | 90 | 1010.6 |
| 20260510144003 | 51 | 207 | 6.1 | 13.0 | 0.01 | 0.54 | 0.24 | 87 | 1010.5 |
| 20260510143003 | 51 | 209 | 5.2 | 13.0 | 0.00 | 0.53 | 0.23 | 84 | 1010.4 |
| 20260510142003 | 51 | 213 | 7.0 | 12.2 | 0.00 | 0.53 | 0.23 | 84 | 1010.6 |
| 20260510141003 | 52 | 220 | 7.8 | 13.0 | 0.00 | 0.53 | 0.23 | 80 | 1010.7 |
| 20260510140003 | 53 | 227 | 8.7 | 14.8 | 0.00 | 0.53 | 0.23 | 76 | 1010.6 |
| 20260510135003 | 53 | 224 | 8.7 | 13.9 | 0.00 | 0.54 | 0.23 | 74 | 1010.7 |
| 20260510134003 | 52 | 224 | 8.7 | 14.8 | 0.00 | 0.54 | 0.23 | 77 | 1010.3 |
| 20260510133003 | 52 | 217 | 7.8 | 13.0 | 0.00 | 0.57 | 0.23 | 79 | 1010.4 |
| 20260510132003 | 52 | 226 | 7.8 | 15.6 | 0.00 | 0.59 | 0.23 | 79 | 1010.5 |
| 20260510131003 | 51 | 232 | 9.6 | 14.8 | 0.00 | 0.59 | 0.23 | 80 | 1010.5 |
| 20260510130003 | 51 | 222 | 10.4 | 16.5 | 0.01 | 0.59 | 0.23 | 83 | 1010.8 |
| 20260510125003 | 51 | 225 | 7.8 | 15.6 | 0.01 | 0.59 | 0.23 | 86 | 1010.6 |
| 20260510124003 | 51 | 227 | 9.6 | 15.6 | 0.01 | 0.59 | 0.23 | 85 | 1010.9 |
| 20260510123003 | 51 | 230 | 7.8 | 13.0 | 0.02 | 0.59 | 0.23 | 84 | 1010.7 |
| 20260510122003 | 51 | 217 | 5.2 | 11.3 | 0.04 | 0.59 | 0.23 | 88 | 1010.6 |
| 20260510121003 | 49 | 228 | 11.3 | 19.1 | 0.09 | 0.59 | 0.23 | 90 | 1011.0 |
| 20260510120003 | 49 | 227 | 11.3 | 18.2 | 0.09 | 0.58 | 0.22 | 89 | 1011.3 |
| 20260510115003 | 49 | 236 | 9.6 | 16.5 | 0.09 | 0.58 | 0.22 | 91 | 1010.9 |
| 20260510114003 | 48 | 223 | 7.8 | 21.7 | 0.09 | 0.58 | 0.22 | 94 | 1011.0 |
| 20260510113003 | 47 | 228 | 9.6 | 19.1 | 0.08 | 0.57 | 0.21 | 93 | 1010.8 |
| 20260510112003 | 47 | 247 | 13.9 | 23.5 | 0.06 | 0.55 | 0.19 | 91 | 1011.2 |
| 20260510111003 | 52 | 206 | 13.0 | 21.7 | 0.01 | 0.50 | 0.14 | 83 | 1010.7 |
| 20260510110003 | 53 | 184 | 9.6 | 18.2 | 0.00 | 0.49 | 0.13 | 83 | 1009.8 |
| 20260510105003 | 54 | 177 | 9.6 | 14.8 | 0.00 | 0.49 | 0.13 | 78 | 1009.8 |
| 20260510104003 | 55 | 173 | 9.6 | 16.5 | 0.00 | 0.49 | 0.13 | 77 | 1009.8 |
| 20260510103003 | 55 | 178 | 9.6 | 16.5 | 0.00 | 0.49 | 0.13 | 78 | 1010.2 |
| 20260510102003 | 55 | 170 | 8.7 | 20.9 | 0.02 | 0.49 | 0.13 | 82 | 1010.2 |
| 20260510101003 | 54 | 177 | 9.6 | 19.1 | 0.03 | 0.49 | 0.13 | 81 | 1010.2 |
| 20260510100003 | 53 | 169 | 9.6 | 16.5 | 0.04 | 0.49 | 0.13 | 85 | 1010.4 |
| 20260510095003 | 53 | 162 | 9.6 | 15.6 | 0.05 | 0.49 | 0.13 | 85 | 1010.6 |
| 20260510094003 | 51 | 154 | 6.1 | 13.9 | 0.05 | 0.49 | 0.13 | 92 | 1010.6 |
| 20260510093003 | 51 | 166 | 6.1 | 13.9 | 0.05 | 0.49 | 0.13 | 91 | 1010.5 |
| 20260510092003 | 51 | 169 | 5.2 | 9.6 | 0.03 | 0.47 | 0.11 | 90 | 1010.6 |
| 20260510091003 | 51 | 184 | 7.0 | 13.9 | 0.02 | 0.46 | 0.10 | 88 | 1010.7 |
| 20260510090003 | 52 | 193 | 7.0 | 14.8 | 0.01 | 0.45 | 0.09 | 86 | 1010.8 |
| 20260510085003 | 52 | 186 | 7.8 | 13.9 | 0.00 | 0.44 | 0.08 | 88 | 1010.7 |
| 20260510084003 | 52 | 192 | 7.8 | 13.9 | 0.00 | 0.44 | 0.08 | 84 | 1010.5 |
| 20260510083003 | 52 | 195 | 7.0 | 13.0 | 0.00 | 0.44 | 0.08 | 87 | 1010.6 |
| 20260510082003 | 52 | 189 | 7.8 | 13.9 | 0.00 | 0.44 | 0.08 | 88 | 1010.8 |
| 20260510081003 | 52 | 195 | 5.2 | 12.2 | 0.00 | 0.44 | 0.08 | 89 | 1010.7 |
| 20260510080003 | 51 | 161 | 6.1 | 14.8 | 0.00 | 0.44 | 0.08 | 90 | 1010.9 |
| 20260510075003 | 51 | 163 | 7.0 | 13.0 | 0.00 | 0.44 | 0.08 | 91 | 1011.0 |
| 20260510074003 | 51 | 152 | 6.1 | 12.2 | 0.00 | 0.44 | 0.08 | 92 | 1010.8 |
| 20260510073003 | 50 | 153 | 3.5 | 8.7 | 0.00 | 0.44 | 0.08 | 93 | 1010.8 |
| 20260510072003 | 49 | 146 | 4.3 | 8.7 | 0.00 | 0.44 | 0.08 | 93 | 1010.8 |
| 20260510071003 | 49 | 150 | 5.2 | 9.6 | 0.00 | 0.44 | 0.08 | 93 | 1010.7 |
| 20260510070003 | 49 | 162 | 6.1 | 11.3 | 0.00 | 0.44 | 0.08 | 93 | 1010.8 |
| 20260510065003 | 49 | 162 | 5.2 | 11.3 | 0.00 | 0.44 | 0.08 | 94 | 1010.6 |
| 20260510064003 | 48 | 152 | 4.3 | 7.8 | 0.00 | 0.44 | 0.08 | 94 | 1010.5 |
| 20260510063003 | 48 | 167 | 4.3 | 8.7 | 0.01 | 0.44 | 0.08 | 94 | 1010.2 |
| 20260510062003 | 48 | 154 | 3.5 | 7.8 | 0.01 | 0.44 | 0.08 | 95 | 1010.6 |
| 20260510061003 | 47 | 168 | 4.3 | 8.7 | 0.01 | 0.44 | 0.08 | 95 | 1010.4 |
| 20260510060003 | 47 | 167 | 4.3 | 8.7 | 0.01 | 0.44 | 0.08 | 95 | 1010.4 |
| 20260510055003 | 47 | 147 | 5.2 | 9.6 | 0.01 | 0.44 | 0.08 | 95 | 1010.5 |
| 20260510054003 | 47 | 166 | 6.1 | 11.3 | 0.01 | 0.44 | 0.08 | 95 | 1010.4 |
| 20260510053003 | 47 | 158 | 4.3 | 7.8 | 0.00 | 0.43 | 0.07 | 95 | 1010.4 |
| 20260510052003 | 47 | 165 | 4.3 | 8.7 | 0.00 | 0.43 | 0.07 | 95 | 1010.1 |
| 20260510051003 | 47 | 148 | 5.2 | 8.7 | 0.00 | 0.43 | 0.07 | 94 | 1010.3 |
| 20260510050003 | 47 | 148 | 6.1 | 11.3 | 0.00 | 0.43 | 0.07 | 94 | 1010.3 |
| 20260510045003 | 46 | 151 | 5.2 | 11.3 | 0.00 | 0.43 | 0.07 | 94 | 1010.1 |
| 20260510044003 | 46 | 142 | 6.1 | 11.3 | 0.00 | 0.43 | 0.07 | 95 | 1010.1 |
| 20260510043003 | 46 | 137 | 5.2 | 8.7 | 0.00 | 0.43 | 0.07 | 94 | 1010.4 |
| 20260510042003 | 46 | 143 | 5.2 | 7.8 | 0.00 | 0.43 | 0.07 | 95 | 1010.2 |
| 20260510041003 | 46 | 132 | 4.3 | 7.8 | 0.00 | 0.43 | 0.07 | 95 | 1010.3 |
| 20260510040003 | 46 | 133 | 2.6 | 5.2 | 0.00 | 0.43 | 0.07 | 94 | 1010.4 |
| 20260510035003 | 47 | 144 | 3.5 | 6.1 | 0.00 | 0.43 | 0.07 | 94 | 1010.5 |
| 20260510034003 | 47 | 153 | 3.5 | 7.0 | 0.00 | 0.43 | 0.07 | 93 | 1010.7 |
| 20260510033003 | 47 | 187 | 4.3 | 7.0 | 0.00 | 0.43 | 0.07 | 93 | 1010.8 |
| 20260510032003 | 47 | 186 | 3.5 | 6.1 | 0.00 | 0.43 | 0.07 | 93 | 1010.7 |
| 20260510031003 | 47 | 188 | 3.5 | 6.1 | 0.00 | 0.43 | 0.07 | 93 | 1010.7 |
| 20260510030003 | 47 | 190 | 4.3 | 7.0 | 0.00 | 0.43 | 0.07 | 93 | 1010.8 |
| 20260510025003 | 47 | 191 | 4.3 | 7.0 | 0.00 | 0.43 | 0.07 | 93 | 1010.9 |
| 20260510024003 | 47 | 193 | 3.5 | 7.0 | 0.00 | 0.43 | 0.07 | 93 | 1010.9 |
| 20260510023003 | 47 | 197 | 5.2 | 8.7 | 0.00 | 0.43 | 0.07 | 92 | 1010.9 |
| 20260510022003 | 47 | 198 | 5.2 | 7.8 | 0.00 | 0.43 | 0.07 | 92 | 1010.9 |
| 20260510021003 | 47 | 204 | 4.3 | 7.8 | 0.00 | 0.43 | 0.07 | 92 | 1011.0 |
| 20260510020003 | 47 | 204 | 5.2 | 8.7 | 0.00 | 0.43 | 0.07 | 92 | 1010.8 |
| 20260510015003 | 47 | 203 | 5.2 | 8.7 | 0.00 | 0.43 | 0.07 | 92 | 1010.9 |
| 20260510014003 | 47 | 206 | 5.2 | 8.7 | 0.00 | 0.43 | 0.07 | 92 | 1011.0 |
| 20260510013003 | 48 | 203 | 6.1 | 9.6 | 0.00 | 0.43 | 0.07 | 93 | 1010.8 |
| 20260510012003 | 48 | 208 | 6.1 | 11.3 | 0.01 | 0.43 | 0.07 | 93 | 1010.8 |
| 20260510011003 | 48 | 208 | 6.1 | 9.6 | 0.01 | 0.43 | 0.07 | 94 | 1010.9 |
| 20260510010003 | 48 | 214 | 6.1 | 8.7 | 0.02 | 0.43 | 0.07 | 93 | 1011.3 |
| 20260510005003 | 48 | 217 | 7.0 | 13.9 | 0.02 | 0.43 | 0.07 | 92 | 1011.3 |
| 20260510004003 | 48 | 215 | 7.0 | 13.9 | 0.02 | 0.43 | 0.07 | 92 | 1011.4 |
| 20260510003003 | 48 | 212 | 6.1 | 9.6 | 0.04 | 0.43 | 0.07 | 93 | 1011.6 |
| 20260510002003 | 48 | 210 | 5.2 | 8.7 | 0.04 | 0.42 | 0.06 | 93 | 1011.4 |
| 20260510001003 | 48 | 211 | 4.3 | 7.0 | 0.05 | 0.42 | 0.06 | 93 | 1011.4 |
| 20260510000003 | 48 | 222 | 6.1 | 9.6 | 0.04 | 0.41 | 0.05 | 91 | 1011.5 |
| 20260509235003 | 48 | 217 | 6.1 | 11.3 | 0.04 | 0.41 | 0.05 | 91 | 1011.6 |
| 20260509234003 | 48 | 234 | 7.0 | 12.2 | 0.04 | 0.41 | 0.05 | 92 | 1011.6 |
| 20260509233003 | 49 | 235 | 7.0 | 13.0 | 0.02 | 0.39 | 0.03 | 91 | 1011.6 |
| 20260509232003 | 49 | 218 | 6.1 | 12.2 | 0.01 | 0.38 | 0.02 | 89 | 1011.6 |
| 20260509231003 | 49 | 215 | 5.2 | 12.2 | 0.00 | 0.37 | 0.01 | 90 | 1011.0 |
| 20260509230003 | 49 | 208 | 6.1 | 13.0 | 0.01 | 0.37 | 0.01 | 89 | 1011.3 |
| 20260509225003 | 48 | 201 | 4.3 | 9.6 | 0.03 | 0.37 | 0.01 | 92 | 1011.0 |
| 20260509224003 | 48 | 201 | 5.2 | 13.0 | 0.08 | 0.37 | 0.01 | 93 | 1011.0 |
| 20260509223003 | 48 | 212 | 4.3 | 11.3 | 0.09 | 0.37 | 0.01 | 94 | 1011.0 |
| 20260509222003 | 48 | 208 | 4.3 | 11.3 | 0.09 | 0.37 | 0.01 | 95 | 1011.2 |
| 20260509221003 | 48 | 211 | 4.3 | 8.7 | 0.09 | 0.37 | 0.01 | 94 | 1011.0 |
| 20260509220003 | 48 | 225 | 7.0 | 12.2 | 0.08 | 0.36 | 0.00 | 94 | 1011.2 |
| 20260509215003 | 48 | 233 | 7.0 | 14.8 | 0.06 | 0.34 | 0.34 | 93 | 1011.2 |
| 20260509214003 | 48 | 244 | 9.6 | 19.1 | 0.01 | 0.29 | 0.30 | 92 | 1010.9 |
| 20260509213003 | 49 | 247 | 8.7 | 15.6 | 0.00 | 0.28 | 0.28 | 89 | 1010.9 |
| 20260509212003 | 51 | 208 | 9.6 | 20.9 | 0.00 | 0.28 | 0.28 | 82 | 1011.0 |
| 20260509211003 | 52 | 152 | 7.8 | 13.0 | 0.00 | 0.28 | 0.28 | 82 | 1010.2 |
| 20260509210003 | 52 | 170 | 7.8 | 13.9 | 0.00 | 0.28 | 0.28 | 82 | 1010.1 |
| 20260509205003 | 52 | 151 | 7.8 | 14.8 | 0.00 | 0.28 | 0.28 | 81 | 1009.7 |
| 20260509204003 | 53 | 160 | 7.0 | 13.9 | 0.00 | 0.28 | 0.28 | 81 | 1009.7 |
| 20260509203003 | 53 | 158 | 7.8 | 15.6 | 0.00 | 0.28 | 0.28 | 81 | 1009.4 |
| 20260509202003 | 53 | 159 | 8.7 | 18.2 | 0.00 | 0.28 | 0.28 | 80 | 1009.1 |
| 20260509201003 | 53 | 150 | 7.8 | 16.5 | 0.00 | 0.28 | 0.28 | 82 | 1009.0 |
| 20260509200003 | 53 | 141 | 7.8 | 13.9 | 0.00 | 0.28 | 0.28 | 85 | 1008.9 |
| 20260509195003 | 53 | 153 | 7.8 | 13.9 | 0.00 | 0.28 | 0.28 | 86 | 1008.8 |
| 20260509194003 | 53 | 158 | 7.8 | 13.9 | 0.00 | 0.28 | 0.28 | 86 | 1008.8 |
| 20260509193003 | 53 | 152 | 7.0 | 13.9 | 0.00 | 0.28 | 0.28 | 85 | 1008.5 |
| 20260509192003 | 54 | 143 | 7.8 | 13.0 | 0.00 | 0.28 | 0.28 | 85 | 1008.3 |
| 20260509191003 | 54 | 141 | 8.7 | 14.8 | 0.00 | 0.28 | 0.28 | 82 | 1008.0 |